Regional Weather Roundup
Issued by NWS

Home | Current Version | Previous Version | Graphics & Text | Print | Product List | Glossary On
Versions: 1 2 3 4 5 6 7 8 9 10 11 12 13 14 15 16 17 18 19 20 21 22 23 24 25 26 27 28
000
ASUS45 KSLC 260910
RWRUT

UTAH REGIONAL WEATHER ROUNDUP
NATIONAL WEATHER SERVICE SALT LAKE CITY UT
300 AM MDT FRI AUG 26 2016

UTZ001>011-023>025-261000-

NORTHERN UTAH

CITY           SKY/WX    TMP DP  RH WIND       PRES   REMARKS
BRIGHAM CITY     N/A     62  38  41 S9        30.04R
HILL AFB         N/A     62  28  28 E15       30.05F
LOGAN            N/A     50  37  61 NE3       30.05F
OGDEN            N/A     61  29  29 S9        30.03S
PROVO AIRPORT    N/A     61  39  44 E7        30.07R
SALT LAKE CITY   N/A     70  36  28 SE15      30.02S
VERNAL           N/A     53  41  63 NW7       30.18S
WENDOVER         N/A     68  27  21 NE6       30.02S
HEBER CITY       N/A     52  34  50 CALM      30.13S
WEST JORDAN      N/A     65  36  33 S7        30.05F

$$

UTZ012>022-026-027-261000-

SOUTHERN/CENTRAL UTAH

CITY           SKY/WX    TMP DP  RH WIND       PRES   REMARKS
BLANDING         N/A     52  49  91 N6        30.29F
BRYCE CANYON   LGT RAIN  48  46  93 S6        30.30F
CEDAR CITY       N/A     57  44  62 CALM      30.16S
MILFORD          N/A     64  43  46 S9        30.08F
MOAB/CYNLANDS    N/A     60  47  61 SE6       30.14F
PRICE            N/A     56  39  53 E9        30.20F
ST GEORGE        N/A     70  48  46 E3        30.06S

$$

REGIONAL REPORTS     COLORADO/ARIZONA

CITY           SKY/WX    TMP DP  RH WIND       PRES   REMARKS
CRAIG, CO        N/A     51  39  63 SE3       30.23F
GRAND JUNCTION   N/A     56  48  74 E13       30.19F
RIFLE            N/A     51  50  96 E5        30.24F
MONTROSE         N/A     53  45  74 SE9       30.27F
CORTEZ           N/A     53  51  93 NE5       30.23F
PAGE, AZ       MOCLDY    63  56  78 SW5       30.15F
GRAND CANYON     N/A    N/A N/A N/A MISG      30.27S
KINGMAN          N/A     75  52  44 SE13      30.00R
FLAGSTAFF      CLOUDY    51  50  96 SW5       30.30F

$$

REGIONAL REPORTS    NEVADA/IDAHO/WYOMING

CITY           SKY/WX    TMP DP  RH WIND       PRES   REMARKS
LAS VEGAS, NV    N/A     84  43  23 N5        29.83S
ELY              N/A     46  30  53 CALM      30.14F
ELKO             N/A     49  22  34 CALM      30.08F
POCATELLO, ID    N/A     47  30  51 SE5       30.06F
BURLEY           N/A     47  36  65 CALM      30.02F
EVANSTON, WY     N/A     48  31  51 E9        30.21F
ROCK SPRINGS     N/A     49  38  65 E8        30.23S

$$




USA.gov is the U.S. government's official web portal to all federal, state and local government web resources and services.